Time,TemperatureF,DewpointF,PressureIn,WindDirection,WindDirectionDegrees,WindSpeedMPH,WindSpeedGustMPH,Humidity,HourlyPrecipIn,Conditions,Clouds,dailyrainin,SoftwareType,DateUTC
2013-09-10 00:00:00,58.7,56.1,29.96,North,5,0.0,0.0,91,0.00,,,0.00,Wunderground v.1.15,2013-09-10 07:00:00,
2013-09-10 00:10:00,58.5,56.2,29.96,NNE,31,0.0,0.0,92,0.00,,,0.00,Wunderground v.1.15,2013-09-10 07:10:00,
2013-09-10 00:15:00,58.4,56.1,29.96,NNE,21,0.0,0.0,92,0.00,,,0.00,Wunderground v.1.15,2013-09-10 07:15:00,
2013-09-10 00:20:00,58.3,56.0,29.97,NNE,27,0.0,0.0,92,0.00,,,0.00,Wunderground v.1.15,2013-09-10 07:20:00,
2013-09-10 00:25:00,58.2,55.9,29.97,NNE,12,0.0,0.0,92,0.00,,,0.00,Wunderground v.1.15,2013-09-10 07:25:00,
2013-09-10 00:35:00,58.1,55.8,29.97,North,9,0.0,8.0,92,0.00,,,0.00,Wunderground v.1.15,2013-09-10 07:35:00,
2013-09-10 00:45:00,58.0,56.0,29.97,WNW,300,0.0,8.0,93,0.00,,,0.00,Wunderground v.1.15,2013-09-10 07:45:00,
2013-09-10 00:55:00,58.0,56.0,29.97,WNW,288,0.0,8.0,93,0.00,,,0.00,Wunderground v.1.15,2013-09-10 07:55:00,
2013-09-10 01:05:00,57.9,55.9,29.97,North,2,0.0,0.0,93,0.00,,,0.00,Wunderground v.1.15,2013-09-10 08:05:00,
2013-09-10 01:15:00,57.7,55.7,29.97,NNE,13,0.0,0.0,93,0.00,,,0.00,Wunderground v.1.15,2013-09-10 08:15:00,
2013-09-10 01:25:00,57.5,55.5,29.97,NNE,12,0.0,0.0,93,0.00,,,0.00,Wunderground v.1.15,2013-09-10 08:25:00,
2013-09-10 01:30:00,57.5,55.5,29.97,NNE,28,0.0,1.0,93,0.00,,,0.00,Wunderground v.1.15,2013-09-10 08:30:00,
2013-09-10 01:35:00,57.4,55.4,29.97,NNE,12,0.0,2.0,93,0.00,,,0.00,Wunderground v.1.15,2013-09-10 08:35:00,
2013-09-10 01:45:00,57.2,55.2,29.97,NNE,24,0.0,2.0,93,0.00,,,0.00,Wunderground v.1.15,2013-09-10 08:45:00,
2013-09-10 01:55:00,56.9,54.9,29.97,North,353,0.0,2.0,93,0.00,,,0.00,Wunderground v.1.15,2013-09-10 08:55:00,
2013-09-10 02:05:00,56.8,55.1,29.97,North,11,0.0,0.0,94,0.00,,,0.00,Wunderground v.1.15,2013-09-10 09:05:00,
2013-09-10 02:15:00,56.6,54.9,29.97,NW,316,0.0,0.0,94,0.00,,,0.00,Wunderground v.1.15,2013-09-10 09:15:00,
2013-09-10 02:25:00,56.3,54.6,29.97,North,358,0.0,1.0,94,0.00,,,0.00,Wunderground v.1.15,2013-09-10 09:25:00,
2013-09-10 02:35:00,56.0,54.3,29.97,NNE,13,0.0,5.0,94,0.00,,,0.00,Wunderground v.1.15,2013-09-10 09:35:00,
2013-09-10 02:45:00,55.9,54.5,29.97,North,6,0.0,5.0,95,0.00,,,0.00,Wunderground v.1.15,2013-09-10 09:45:00,
2013-09-10 02:55:00,55.8,54.4,29.97,NNE,18,0.0,5.0,95,0.00,,,0.00,Wunderground v.1.15,2013-09-10 09:55:00,
2013-09-10 03:00:00,55.8,54.4,29.97,NNE,29,0.0,1.0,95,0.00,,,0.00,Wunderground v.1.15,2013-09-10 10:00:00,
2013-09-10 03:05:00,55.8,54.4,29.97,NNE,16,0.0,1.0,95,0.00,,,0.00,Wunderground v.1.15,2013-09-10 10:05:00,
2013-09-10 03:15:00,55.7,54.3,29.97,NNE,16,0.0,0.0,95,0.00,,,0.00,Wunderground v.1.15,2013-09-10 10:15:00,
2013-09-10 03:25:00,55.7,54.3,29.97,NNE,16,0.0,0.0,95,0.00,,,0.00,Wunderground v.1.15,2013-09-10 10:25:00,
2013-09-10 03:35:00,55.6,54.2,29.97,NNE,20,0.0,4.0,95,0.00,,,0.00,Wunderground v.1.15,2013-09-10 10:35:00,
2013-09-10 03:40:00,55.7,54.3,29.96,NNE,26,0.0,4.0,95,0.00,,,0.00,Wunderground v.1.15,2013-09-10 10:40:00,
2013-09-10 03:45:00,55.7,54.6,29.96,North,357,0.0,4.0,96,0.00,,,0.00,Wunderground v.1.15,2013-09-10 10:45:00,
2013-09-10 03:55:00,55.9,54.8,29.96,North,357,0.0,4.0,96,0.00,,,0.00,Wunderground v.1.15,2013-09-10 10:55:00,
2013-09-10 04:05:00,56.0,54.9,29.96,NNE,19,0.0,0.0,96,0.00,,,0.00,Wunderground v.1.15,2013-09-10 11:05:00,
2013-09-10 04:15:00,55.9,54.8,29.96,North,8,0.0,0.0,96,0.00,,,0.00,Wunderground v.1.15,2013-09-10 11:15:00,
2013-09-10 04:25:00,55.9,54.8,29.96,NNE,20,0.0,0.0,96,0.00,,,0.00,Wunderground v.1.15,2013-09-10 11:25:00,
2013-09-10 04:35:00,55.8,54.4,29.96,NNE,23,0.0,3.0,95,0.00,,,0.00,Wunderground v.1.15,2013-09-10 11:35:00,
2013-09-10 04:45:00,55.8,54.4,29.96,NW,318,0.0,3.0,95,0.00,,,0.00,Wunderground v.1.15,2013-09-10 11:45:00,
2013-09-10 04:50:00,55.9,54.8,29.95,North,10,0.0,3.0,96,0.00,,,0.00,Wunderground v.1.15,2013-09-10 11:50:00,
2013-09-10 04:55:00,55.9,54.5,29.95,NNE,30,0.0,3.0,95,0.00,,,0.00,Wunderground v.1.15,2013-09-10 11:55:00,
2013-09-10 05:05:00,55.8,54.4,29.95,NNW,343,0.0,0.0,95,0.00,,,0.00,Wunderground v.1.15,2013-09-10 12:05:00,
2013-09-10 05:15:00,55.6,54.2,29.95,NNW,343,0.0,0.0,95,0.00,,,0.00,Wunderground v.1.15,2013-09-10 12:15:00,
2013-09-10 05:25:00,55.5,54.1,29.95,NW,308,0.0,0.0,95,0.00,,,0.00,Wunderground v.1.15,2013-09-10 12:25:00,
2013-09-10 05:35:00,55.5,54.1,29.96,North,11,0.0,1.0,95,0.00,,,0.00,Wunderground v.1.15,2013-09-10 12:35:00,
2013-09-10 05:45:00,55.3,53.9,29.96,North,11,0.0,1.0,95,0.00,,,0.00,Wunderground v.1.15,2013-09-10 12:45:00,
2013-09-10 05:55:00,55.3,53.9,29.96,NNE,29,0.0,1.0,95,0.00,,,0.00,Wunderground v.1.15,2013-09-10 12:55:00,
2013-09-10 06:05:00,55.3,54.2,29.96,WNW,303,0.0,1.0,96,0.00,,,0.00,Wunderground v.1.15,2013-09-10 13:05:00,
2013-09-10 06:15:00,55.3,54.2,29.95,North,11,0.0,0.0,96,0.00,,,0.00,Wunderground v.1.15,2013-09-10 13:15:00,
2013-09-10 06:25:00,55.2,54.1,29.96,NNE,12,0.0,0.0,96,0.00,,,0.00,Wunderground v.1.15,2013-09-10 13:25:00,
2013-09-10 06:35:00,54.9,53.5,29.96,NNE,12,0.0,2.0,95,0.00,,,0.00,Wunderground v.1.15,2013-09-10 13:35:00,
2013-09-10 06:40:00,54.9,53.5,29.96,North,11,0.0,2.0,95,0.00,,,0.00,Wunderground v.1.15,2013-09-10 13:40:00,
2013-09-10 06:45:00,54.8,53.7,29.96,North,351,0.0,2.0,96,0.00,,,0.00,Wunderground v.1.15,2013-09-10 13:45:00,
2013-09-10 06:55:00,55.0,53.9,29.96,North,358,0.0,2.0,96,0.00,,,0.00,Wunderground v.1.15,2013-09-10 13:55:00,
2013-09-10 07:00:00,55.2,54.1,29.96,WNW,303,0.0,0.0,96,0.00,,,0.00,Wunderground v.1.15,2013-09-10 14:00:00,
2013-09-10 07:05:00,55.4,54.3,29.96,North,4,0.0,0.0,96,0.00,,,0.00,Wunderground v.1.15,2013-09-10 14:05:00,
2013-09-10 07:15:00,55.7,54.6,29.96,NW,306,0.0,1.0,96,0.00,,,0.00,Wunderground v.1.15,2013-09-10 14:15:00,
2013-09-10 07:25:00,56.2,55.4,29.97,NNW,335,0.0,1.0,97,0.00,,,0.00,Wunderground v.1.15,2013-09-10 14:25:00,
2013-09-10 07:35:00,56.4,55.3,29.97,NW,309,0.0,2.0,96,0.00,,,0.00,Wunderground v.1.15,2013-09-10 14:35:00,
2013-09-10 07:45:00,56.8,56.0,29.97,WNW,301,0.0,2.0,97,0.00,,,0.00,Wunderground v.1.15,2013-09-10 14:45:00,
2013-09-10 07:55:00,57.1,56.0,29.97,NNW,334,0.0,2.0,96,0.00,,,0.00,Wunderground v.1.15,2013-09-10 14:55:00,
2013-09-10 08:05:00,57.3,56.2,29.97,North,360,0.0,0.0,96,0.00,,,0.00,Wunderground v.1.15,2013-09-10 15:05:00,
2013-09-10 08:15:00,57.5,56.4,29.97,NNE,14,0.0,0.0,96,0.00,,,0.00,Wunderground v.1.15,2013-09-10 15:15:00,
2013-09-10 08:25:00,59.9,58.8,29.97,NNW,334,1.0,1.0,96,0.00,,,0.00,Wunderground v.1.15,2013-09-10 15:25:00,
2013-09-10 08:35:00,62.5,58.9,29.97,North,11,1.0,3.0,88,0.00,,,0.00,Wunderground v.1.15,2013-09-10 15:35:00,
2013-09-10 08:45:00,63.9,59.0,29.96,NNE,14,0.0,3.0,84,0.00,,,0.00,Wunderground v.1.15,2013-09-10 15:45:00,
2013-09-10 08:55:00,65.5,59.2,29.96,NNE,18,1.0,3.0,80,0.00,,,0.00,Wunderground v.1.15,2013-09-10 15:55:00,
2013-09-10 09:05:00,66.7,59.3,29.97,NW,313,1.0,5.0,77,0.00,,,0.00,Wunderground v.1.15,2013-09-10 16:05:00,
2013-09-10 09:15:00,68.1,59.9,29.97,NNE,15,2.0,2.0,75,0.00,,,0.00,Wunderground v.1.15,2013-09-10 16:15:00,
2013-09-10 09:25:00,69.6,59.8,29.97,North,2,3.0,5.0,71,0.00,,,0.00,Wunderground v.1.15,2013-09-10 16:25:00,
2013-09-10 09:30:00,70.0,60.2,29.97,North,6,2.0,2.0,71,0.00,,,0.00,Wunderground v.1.15,2013-09-10 16:30:00,
2013-09-10 09:35:00,70.1,60.3,29.97,NNW,342,2.0,8.0,71,0.00,,,0.00,Wunderground v.1.15,2013-09-10 16:35:00,
2013-09-10 09:45:00,71.0,60.7,29.97,NNE,29,1.0,8.0,70,0.00,,,0.00,Wunderground v.1.15,2013-09-10 16:45:00,
2013-09-10 09:55:00,72.3,60.7,29.97,WNW,301,2.0,8.0,67,0.00,,,0.00,Wunderground v.1.15,2013-09-10 16:55:00,
2013-09-10 10:00:00,72.9,60.9,29.97,North,2,2.0,2.0,66,0.00,,,0.00,Wunderground v.1.15,2013-09-10 17:00:00,
2013-09-10 10:10:00,73.4,60.5,29.97,NW,320,2.0,2.0,64,0.00,,,0.00,Wunderground v.1.15,2013-09-10 17:10:00,
2013-09-10 10:15:00,72.9,60.4,29.97,NNW,337,2.0,2.0,65,0.00,,,0.00,Wunderground v.1.15,2013-09-10 17:15:00,
2013-09-10 10:25:00,72.2,60.2,29.97,NNW,328,2.0,3.0,66,0.00,,,0.00,Wunderground v.1.15,2013-09-10 17:25:00,
2013-09-10 10:35:00,72.6,60.2,29.97,NW,325,2.0,10.0,65,0.00,,,0.00,Wunderground v.1.15,2013-09-10 17:35:00,
2013-09-10 10:45:00,73.5,60.6,29.97,NW,306,2.0,5.0,64,0.00,,,0.00,Wunderground v.1.15,2013-09-10 17:45:00,
2013-09-10 10:55:00,73.8,60.9,29.96,NNW,339,2.0,10.0,64,0.00,,,0.00,Wunderground v.1.15,2013-09-10 17:55:00,
2013-09-10 11:05:00,74.6,61.2,29.96,NNE,17,2.0,3.0,63,0.00,,,0.00,Wunderground v.1.15,2013-09-10 18:05:00,
2013-09-10 11:10:00,74.6,61.2,29.96,NW,322,2.0,2.0,63,0.00,,,0.00,Wunderground v.1.15,2013-09-10 18:10:00,
2013-09-10 11:15:00,74.9,61.5,29.96,North,1,2.0,2.0,63,0.00,,,0.00,Wunderground v.1.15,2013-09-10 18:15:00,
2013-09-10 11:25:00,75.1,61.2,29.96,NW,308,2.0,4.0,62,0.00,,,0.00,Wunderground v.1.15,2013-09-10 18:25:00,
2013-09-10 11:35:00,75.3,60.9,29.95,WNW,301,2.0,11.0,61,0.00,,,0.00,Wunderground v.1.15,2013-09-10 18:35:00,
2013-09-10 11:45:00,74.4,60.5,29.95,NW,304,3.0,11.0,62,0.00,,,0.00,Wunderground v.1.15,2013-09-10 18:45:00,
2013-09-10 11:55:00,73.7,60.8,29.95,NNW,330,2.0,11.0,64,0.00,,,0.00,Wunderground v.1.15,2013-09-10 18:55:00,
2013-09-10 12:05:00,74.7,61.3,29.95,NNE,24,1.0,1.0,63,0.00,,,0.00,Wunderground v.1.15,2013-09-10 19:05:00,
2013-09-10 12:10:00,74.9,61.5,29.95,SW,226,1.0,1.0,63,0.00,,,0.00,Wunderground v.1.15,2013-09-10 19:10:00,
2013-09-10 12:15:00,75.3,61.4,29.94,North,1,1.0,1.0,62,0.00,,,0.00,Wunderground v.1.15,2013-09-10 19:15:00,
2013-09-10 12:25:00,75.1,61.6,29.94,North,351,2.0,2.0,63,0.00,,,0.00,Wunderground v.1.15,2013-09-10 19:25:00,
2013-09-10 12:35:00,74.9,61.5,29.94,NW,326,2.0,9.0,63,0.00,,,0.00,Wunderground v.1.15,2013-09-10 19:35:00,
2013-09-10 12:45:00,74.5,61.1,29.93,NNW,327,2.0,6.0,63,0.00,,,0.00,Wunderground v.1.15,2013-09-10 19:45:00,
2013-09-10 12:55:00,74.7,61.3,29.93,WNW,300,3.0,7.0,63,0.00,,,0.00,Wunderground v.1.15,2013-09-10 19:55:00,
2013-09-10 13:05:00,75.7,61.8,29.93,WNW,296,2.0,3.0,62,0.00,,,0.00,Wunderground v.1.15,2013-09-10 20:05:00,
2013-09-10 13:15:00,76.0,62.0,29.93,NNE,24,2.0,2.0,62,0.00,,,0.00,Wunderground v.1.15,2013-09-10 20:15:00,
2013-09-10 13:25:00,76.7,62.2,29.93,NW,326,1.0,1.0,61,0.00,,,0.00,Wunderground v.1.15,2013-09-10 20:25:00,
2013-09-10 13:35:00,78.9,62.9,29.92,NNE,21,0.0,10.0,58,0.00,,,0.00,Wunderground v.1.15,2013-09-10 20:35:00,
2013-09-10 13:45:00,79.5,62.9,29.93,NNE,26,1.0,10.0,57,0.00,,,0.00,Wunderground v.1.15,2013-09-10 20:45:00,
2013-09-10 13:55:00,80.2,63.1,29.92,NW,313,1.0,10.0,56,0.00,,,0.00,Wunderground v.1.15,2013-09-10 20:55:00,
2013-09-10 14:05:00,80.9,63.2,29.91,NW,308,1.0,1.0,55,0.00,,,0.00,Wunderground v.1.15,2013-09-10 21:05:00,
2013-09-10 14:15:00,79.0,62.5,29.91,WNW,298,3.0,3.0,57,0.00,,,0.00,Wunderground v.1.15,2013-09-10 21:15:00,
2013-09-10 14:25:00,78.2,62.2,29.91,WNW,303,3.0,3.0,58,0.00,,,0.00,Wunderground v.1.15,2013-09-10 21:25:00,
2013-09-10 14:35:00,78.1,62.6,29.91,NNE,12,3.0,10.0,59,0.00,,,0.00,Wunderground v.1.15,2013-09-10 21:35:00,
2013-09-10 14:45:00,79.3,62.7,29.91,WNW,289,2.0,10.0,57,0.00,,,0.00,Wunderground v.1.15,2013-09-10 21:45:00,
2013-09-10 14:55:00,79.1,62.6,29.90,NNW,339,3.0,10.0,57,0.00,,,0.00,Wunderground v.1.15,2013-09-10 21:55:00,
2013-09-10 15:00:00,79.4,62.3,29.90,NNW,330,2.0,2.0,56,0.00,,,0.00,Wunderground v.1.15,2013-09-10 22:00:00,
2013-09-10 15:05:00,79.6,63.0,29.90,North,358,2.0,2.0,57,0.00,,,0.00,Wunderground v.1.15,2013-09-10 22:05:00,
2013-09-10 15:15:00,79.6,62.5,29.90,West,270,3.0,6.0,56,0.00,,,0.00,Wunderground v.1.15,2013-09-10 22:15:00,
2013-09-10 15:25:00,79.2,62.1,29.89,NNW,342,3.0,3.0,56,0.00,,,0.00,Wunderground v.1.15,2013-09-10 22:25:00,
2013-09-10 15:35:00,79.5,62.4,29.89,NNE,15,2.0,12.0,56,0.00,,,0.00,Wunderground v.1.15,2013-09-10 22:35:00,
2013-09-10 15:45:00,80.1,62.5,29.89,NNW,347,1.0,12.0,55,0.00,,,0.00,Wunderground v.1.15,2013-09-10 22:45:00,
2013-09-10 15:55:00,79.8,62.2,29.89,NNE,12,2.0,12.0,55,0.00,,,0.00,Wunderground v.1.15,2013-09-10 22:55:00,
2013-09-10 16:05:00,79.4,62.3,29.88,NNW,342,2.0,2.0,56,0.00,,,0.00,Wunderground v.1.15,2013-09-10 23:05:00,
2013-09-10 16:15:00,79.8,62.2,29.88,North,360,1.0,2.0,55,0.00,,,0.00,Wunderground v.1.15,2013-09-10 23:15:00,
2013-09-10 16:25:00,78.8,61.8,29.88,NNE,14,2.0,3.0,56,0.00,,,0.00,Wunderground v.1.15,2013-09-10 23:25:00,
2013-09-10 16:35:00,77.6,61.7,29.87,NNE,24,2.0,13.0,58,0.00,,,0.00,Wunderground v.1.15,2013-09-10 23:35:00,
2013-09-10 16:45:00,76.7,61.3,29.87,NNW,347,2.0,13.0,59,0.00,,,0.00,Wunderground v.1.15,2013-09-10 23:45:00,
2013-09-10 16:55:00,75.1,61.2,29.88,NW,320,2.0,13.0,62,0.00,,,0.00,Wunderground v.1.15,2013-09-10 23:55:00,
2013-09-10 17:05:00,73.9,61.0,29.87,WNW,295,2.0,3.0,64,0.00,,,0.00,Wunderground v.1.15,2013-09-11 00:05:00,
2013-09-10 17:15:00,73.3,60.8,29.87,NNW,330,1.0,2.0,65,0.00,,,0.00,Wunderground v.1.15,2013-09-11 00:15:00,
2013-09-10 17:25:00,73.0,61.0,29.86,NNW,346,2.0,3.0,66,0.00,,,0.00,Wunderground v.1.15,2013-09-11 00:25:00,
2013-09-10 17:35:00,72.8,60.8,29.87,NNW,334,2.0,10.0,66,0.00,,,0.00,Wunderground v.1.15,2013-09-11 00:35:00,
2013-09-10 17:45:00,72.5,60.9,29.87,NW,312,2.0,4.0,67,0.00,,,0.00,Wunderground v.1.15,2013-09-11 00:45:00,
2013-09-10 17:55:00,72.2,60.6,29.87,WNW,297,2.0,10.0,67,0.00,,,0.00,Wunderground v.1.15,2013-09-11 00:55:00,
2013-09-10 18:05:00,71.9,60.8,29.86,NW,316,2.0,2.0,68,0.00,,,0.00,Wunderground v.1.15,2013-09-11 01:05:00,
2013-09-10 18:15:00,71.7,60.6,29.86,NW,316,1.0,12.0,68,0.00,,,0.00,Wunderground v.1.15,2013-09-11 01:15:00,
2013-09-10 18:25:00,71.3,60.6,29.86,NW,318,1.0,3.0,69,0.00,,,0.00,Wunderground v.1.15,2013-09-11 01:25:00,
2013-09-10 18:35:00,70.9,60.2,29.86,WNW,299,1.0,11.0,69,0.00,,,0.00,Wunderground v.1.15,2013-09-11 01:35:00,
2013-09-10 18:45:00,70.6,60.3,29.86,North,8,1.0,11.0,70,0.00,,,0.00,Wunderground v.1.15,2013-09-11 01:45:00,
2013-09-10 18:55:00,70.2,60.4,29.86,North,6,1.0,11.0,71,0.00,,,0.00,Wunderground v.1.15,2013-09-11 01:55:00,
2013-09-10 19:05:00,70.0,60.2,29.86,NNE,33,0.0,0.0,71,0.00,,,0.00,Wunderground v.1.15,2013-09-11 02:05:00,
2013-09-10 19:15:00,69.9,60.5,29.86,NW,322,1.0,1.0,72,0.00,,,0.00,Wunderground v.1.15,2013-09-11 02:15:00,
2013-09-10 19:25:00,69.6,60.2,29.87,WNW,302,1.0,1.0,72,0.00,,,0.00,Wunderground v.1.15,2013-09-11 02:25:00,
2013-09-10 19:35:00,69.3,59.9,29.86,NW,306,1.0,12.0,72,0.00,,,0.00,Wunderground v.1.15,2013-09-11 02:35:00,
2013-09-10 19:45:00,68.9,59.9,29.86,NW,307,0.0,12.0,73,0.00,,,0.00,Wunderground v.1.15,2013-09-11 02:45:00,
2013-09-10 19:55:00,68.5,59.9,29.87,WNW,303,0.0,12.0,74,0.00,,,0.00,Wunderground v.1.15,2013-09-11 02:55:00,
2013-09-10 20:05:00,68.2,60.0,29.87,NW,308,1.0,3.0,75,0.00,,,0.00,Wunderground v.1.15,2013-09-11 03:05:00,
2013-09-10 20:15:00,68.3,60.4,29.87,NW,324,1.0,1.0,76,0.00,,,0.00,Wunderground v.1.15,2013-09-11 03:15:00,
2013-09-10 20:25:00,68.4,60.2,29.87,NW,307,0.0,1.0,75,0.00,,,0.00,Wunderground v.1.15,2013-09-11 03:25:00,
2013-09-10 20:35:00,68.3,60.1,29.87,East,87,0.0,7.0,75,0.00,,,0.00,Wunderground v.1.15,2013-09-11 03:35:00,
2013-09-10 20:45:00,68.1,59.9,29.88,NNE,14,0.0,7.0,75,0.00,,,0.00,Wunderground v.1.15,2013-09-11 03:45:00,
2013-09-10 20:55:00,67.9,59.7,29.88,NNE,20,0.0,7.0,75,0.00,,,0.00,Wunderground v.1.15,2013-09-11 03:55:00,
2013-09-10 21:05:00,67.6,59.8,29.88,NNE,20,0.0,0.0,76,0.00,,,0.00,Wunderground v.1.15,2013-09-11 04:05:00,
2013-09-10 21:15:00,67.3,59.5,29.88,North,360,0.0,0.0,76,0.00,,,0.00,Wunderground v.1.15,2013-09-11 04:15:00,
2013-09-10 21:20:00,67.3,59.5,29.88,NW,314,0.0,0.0,76,0.00,,,0.00,Wunderground v.1.15,2013-09-11 04:20:00,
2013-09-10 21:25:00,67.3,59.5,29.88,NW,319,0.0,0.0,76,0.00,,,0.00,Wunderground v.1.15,2013-09-11 04:25:00,
2013-09-10 21:35:00,67.5,59.3,29.88,NNW,328,0.0,6.0,75,0.00,,,0.00,Wunderground v.1.15,2013-09-11 04:35:00,
2013-09-10 21:40:00,67.5,59.3,29.88,NNW,337,0.0,6.0,75,0.00,,,0.00,Wunderground v.1.15,2013-09-11 04:40:00,
2013-09-10 21:45:00,67.4,59.2,29.88,NNW,335,0.0,6.0,75,0.00,,,0.00,Wunderground v.1.15,2013-09-11 04:45:00,
2013-09-10 21:55:00,67.2,59.0,29.88,NNW,342,0.0,6.0,75,0.00,,,0.00,Wunderground v.1.15,2013-09-11 04:55:00,
2013-09-10 22:00:00,67.2,59.0,29.88,North,358,0.0,0.0,75,0.00,,,0.00,Wunderground v.1.15,2013-09-11 05:00:00,
2013-09-10 22:05:00,67.1,58.9,29.88,NW,316,0.0,0.0,75,0.00,,,0.00,Wunderground v.1.15,2013-09-11 05:05:00,
2013-09-10 22:15:00,67.2,58.6,29.88,NW,306,1.0,2.0,74,0.00,,,0.00,Wunderground v.1.15,2013-09-11 05:15:00,
2013-09-10 22:25:00,67.2,58.6,29.88,NW,312,0.0,2.0,74,0.00,,,0.00,Wunderground v.1.15,2013-09-11 05:25:00,
2013-09-10 22:35:00,67.1,58.5,29.88,NW,306,1.0,2.0,74,0.00,,,0.00,Wunderground v.1.15,2013-09-11 05:35:00,
2013-09-10 22:45:00,66.8,58.2,29.88,WNW,303,0.0,2.0,74,0.00,,,0.00,Wunderground v.1.15,2013-09-11 05:45:00,
2013-09-10 22:55:00,66.5,58.3,29.88,NNE,12,0.0,2.0,75,0.00,,,0.00,Wunderground v.1.15,2013-09-11 05:55:00,
2013-09-10 23:05:00,66.1,57.9,29.88,NNE,25,0.0,0.0,75,0.00,,,0.00,Wunderground v.1.15,2013-09-11 06:05:00,
2013-09-10 23:15:00,65.9,57.4,29.88,NW,311,0.0,0.0,74,0.00,,,0.00,Wunderground v.1.15,2013-09-11 06:15:00,
2013-09-10 23:25:00,65.9,57.4,29.88,WNW,297,0.0,5.0,74,0.00,,,0.00,Wunderground v.1.15,2013-09-11 06:25:00,
2013-09-10 23:35:00,65.9,57.0,29.88,NW,312,0.0,1.0,73,0.00,,,0.00,Wunderground v.1.15,2013-09-11 06:35:00,
2013-09-10 23:45:00,66.1,57.2,29.88,NW,310,1.0,6.0,73,0.00,,,0.00,Wunderground v.1.15,2013-09-11 06:45:00,
2013-09-10 23:55:00,66.3,56.6,29.88,NW,313,1.0,6.0,71,0.00,,,0.00,Wunderground v.1.15,2013-09-11 06:55:00,